Portada
METAR-TAF:

METAR-TAF

Aeropuertos :

Kirkwall, Escocia

latitud: 58-57N, longitud: 002-54W, altitud: 21 m

Observación

El informe se hizo hace 19 minutos, a las 13:20 UTC
Viento 9 kt del norte
Temperatura 12°C
Humedad 88%
Presión 1012 hPa
Visibilidad 10 km o más
Nubes dispersas a una altura de 600 ft
Cielo nuboso a una altura de 1000 ft

METAR: EGPA 141320Z 01009KT 9999 SCT006 BKN010 12/10 Q1012

Hora: 14:39 (13:39 UTC)

Pronóstico

El informe se hizo hace 2 horas y 42 minutos, a las 10:57 UTC
Pronóstico válido del 14 a las 12 UTC al 14 a las 21 UTC
Viento 12 kt del norte
Visibilidad 10 km o más
Cielo nuboso a una altura de 1500 ft
Temporalmente
del 14 a las 12 UTC al 14 a las 21 UTC
Cielo nuboso a una altura de 1000 ft
Probabilidad 40% :
Temporalmente
del 14 a las 12 UTC al 14 a las 21 UTC
Visibilidad: 6000 m
Cielo nuboso a una altura de 600 ft

TAF: EGPA 141057Z 1412/1421 01012KT 9999 BKN015 TEMPO 1412/1421 BKN010 PROB40 TEMPO 1412/1421 6000 BKN006

Observaciones y pronósticos meteorológicos de más de 4000 aeropuertos (mensajes METAR y TAF).

Los puntos amarillos y rojos representan las estaciones disponibles.

Ponga el ratón en el punto deseado para ver el nombre de la estación.

Haga clic para ver las observaciones y los pronósticos meteorológicos.

Para cambiar el mapa : haga clic en los botones verdes con una cruz de color negro para hacer un zoom, en el botón verde con un guión para alejar o en las flechas verdes para mapas adyacentes.


METAR-TAF: